Location: Clermont
(50.2608°N, 4.3172°E)
Time: 17:49:04
(UTC+00:00)

H-2A R/B - Pass Details

Date: 13 August 2020
Orbit: 734 x 836 km, 98.2° (Epoch: 24 September)

Event Time Altitude Azimuth Distance (km) Brightness Sun altitude
Rises 19:35:35 0° 190° (S) 3,251 5.0 -5.2°
Reaches altitude 10° 19:38:06 10° 199° (SSW) 2,312 4.4 -5.6°
Maximum altitude 19:42:43 34° 264° (W) 1,236 3.7 -6.2°
Drops below altitude 10° 19:47:15 10° 329° (NNW) 2,276 5.6 -6.8°
Sets 19:49:44 0° 339° (NNW) 3,194 6.2 -7.2°
